sat.trackr.live / text

‹ back to catalog

STARLINK-31860

NORAD 59670 · 2024-084S

PAYLOAD ACTIVE UNKNOWN

§ Identity

Operator
Country
US
Launch date
2024-05-06
Launch site
AFETR
Launch vehicle
Mass (kg)
RCS (m²)

Purposes: comms

External: N2YO · Heavens-Above · Gunter

§ Orbital elements

Epoch: 2026-09-21T07:52:47.364672Z

Period
94.27 min
Inclination
43.0016°
Eccentricity
0.0000958
Mean motion
15.27581645 rev/d
Perigee alt
482.4 km
Apogee alt
483.7 km
Semi-major
6,861.2 km
B*
1.9757e-5
RAAN
13.4619°
Arg perigee
280.9486°
Mean anomaly
79.1258°
Rev number
13,431

§ Raw data

STARLINK-318601 59670U 24084S   26264.32832598  .00000282  00000+0  19757-4 0  99992 59670  43.0016  13.4619 0000958 280.9486  79.1258 15.27581645134314

JSON: /api/v1/satellites/59670 · /tle

For live sub-satellite position, see the globe view (requires WebGL).

§ Visibility from observer

Set your observer location to see the next 7 days of passes ≥ 10°. The values pass through the URL so the page stays shareable.

No JS? Fill the form by hand. The geolocation button needs JavaScript.